BEIDOU-3 G4

Last updated on Sun Apr 12 2026 00:02:56 GMT+0000 (Coordinated Universal Time)

1 56564U 23066A 26101.54842417 -.00000281 00000+0 00000+0 0 9998 2 56564 0.5833 316.9653 0003204 158.1765 62.0632 1.00268200 10720
UTC large
Height (km)
Speed (km/s)
/
Latitude / Longitude
Inclination (degrees)
Orbital Period (minutes)
Azimuth
Elevation
Range (km)
Doppler Factor

Next 0 passes for location: London (51.5072 / 0.1276)

Sorry there are no passes over London.
BEIDOU-3 G4